When you browse on this site, cookies collect data to enhance your experience and personalize the content and advertising you see.
Visit our Privacy Policy to learn more. By continuing to use the site, you agree to this use of cookies and data.
  • In Hungary
  • List of Countries
  • For 7 days
  • Water Temperature
  • Satellite Maps
  • Weather Map
  • News
  • Weather Widgets
  • user-avatar
    Login

    Hourly Weather Caldas da Rainha

    Today, 16 July, Tuesday

    Time Temperature Precipitation Wind Pressure Humidity
    00:00 +19°C° 0 mm 6 mps 755 mmHg 88%
    01:00 +19°C° 0 mm 6 mps 755 mmHg 89%
    02:00 +19°C° 0 mm 6 mps 755 mmHg 89%
    03:00 +19°C° 0 mm 6 mps 755 mmHg 89%
    04:00 +19°C° 0 mm 6 mps 755 mmHg 89%
    05:00 +19°C° 0 mm 5 mps 755 mmHg 89%
    06:00 +19°C° 0 mm 5 mps 755 mmHg 86%
    07:00 +20°C° 0 mm 5 mps 755 mmHg 84%
    08:00 +21°C° 0 mm 5 mps 755 mmHg 81%
    09:00 +21°C° 0 mm 5 mps 755 mmHg 79%
    10:00 +21°C° 0 mm 5 mps 755 mmHg 76%
    11:00 +22°C° 0 mm 5 mps 755 mmHg 73%
    12:00 +23°C° 0 mm 6 mps 755 mmHg 70%
    13:00 +23°C° 0 mm 6 mps 755 mmHg 67%
    14:00 +24°C° 0 mm 7 mps 754 mmHg 63%
    15:00 +23°C° 0 mm 7 mps 754 mmHg 68%
    16:00 +22°C° 0 mm 7 mps 754 mmHg 72%
    17:00 +21°C° 0 mm 7 mps 754 mmHg 76%
    18:00 +20°C° 0 mm 7 mps 754 mmHg 80%
    19:00 +18°C° 0 mm 7 mps 755 mmHg 83%
    20:00 +17°C° 0 mm 7 mps 755 mmHg 87%
    21:00 +17°C° 0 mm 7 mps 755 mmHg 87%
    22:00 +17°C° 0 mm 7 mps 755 mmHg 87%
    23:00 +17°C° 0 mm 7 mps 755 mmHg 88%

    Tomorrow, 17 July, Wednesday

    Time Temperature Precipitation Wind Pressure Humidity
    00:00 +17°C° 0 mm 7 mps 755 mmHg 87%
    01:00 +17°C° 0 mm 8 mps 755 mmHg 86%
    02:00 +17°C° 0 mm 8 mps 754 mmHg 86%
    03:00 +17°C° 0 mm 8 mps 755 mmHg 86%
    04:00 +17°C° 0 mm 8 mps 755 mmHg 85%
    05:00 +17°C° 0 mm 8 mps 755 mmHg 85%
    06:00 +18°C° 0 mm 8 mps 755 mmHg 81%
    07:00 +20°C° 0 mm 8 mps 756 mmHg 77%
    08:00 +21°C° 0 mm 8 mps 756 mmHg 73%
    09:00 +22°C° 0 mm 8 mps 756 mmHg 70%
    10:00 +22°C° 0 mm 8 mps 756 mmHg 67%
    11:00 +23°C° 0 mm 8 mps 756 mmHg 64%
    12:00 +23°C° 0 mm 8 mps 756 mmHg 64%
    13:00 +23°C° 0 mm 8 mps 756 mmHg 64%
    14:00 +23°C° 0 mm 9 mps 756 mmHg 64%
    15:00 +22°C° 0 mm 9 mps 755 mmHg 67%
    16:00 +21°C° 0 mm 9 mps 755 mmHg 69%
    17:00 +21°C° 0 mm 9 mps 755 mmHg 71%
    18:00 +19°C° 0 mm 9 mps 756 mmHg 74%
    19:00 +18°C° 0 mm 8 mps 756 mmHg 77%
    20:00 +17°C° 0 mm 8 mps 756 mmHg 80%
    21:00 +17°C° 0 mm 8 mps 756 mmHg 80%
    22:00 +17°C° 0 mm 8 mps 756 mmHg 80%
    23:00 +17°C° 0 mm 8 mps 756 mmHg 80%

    Day after tomorrow, 18 July, Thursday

    Time Temperature Precipitation Wind Pressure Humidity
    00:00 +17°C° 0 mm 8 mps 756 mmHg 82%
    01:00 +16°C° 0 mm 8 mps 756 mmHg 83%
    02:00 +16°C° 0 mm 8 mps 755 mmHg 84%
    03:00 +16°C° 0 mm 8 mps 755 mmHg 84%
    04:00 +16°C° 0 mm 8 mps 755 mmHg 83%
    05:00 +16°C° 0 mm 7 mps 755 mmHg 83%
    06:00 +18°C° 0 mm 8 mps 755 mmHg 75%
    07:00 +20°C° 0 mm 8 mps 756 mmHg 67%
    08:00 +22°C° 0 mm 8 mps 756 mmHg 59%
    09:00 +23°C° 0 mm 8 mps 756 mmHg 55%
    10:00 +24°C° 0 mm 8 mps 756 mmHg 51%
    11:00 +26°C° 0 mm 8 mps 756 mmHg 47%
    12:00 +26°C° 0 mm 8 mps 755 mmHg 49%
    13:00 +26°C° 0 mm 8 mps 755 mmHg 51%
    14:00 +27°C° 0 mm 8 mps 755 mmHg 52%
    15:00 +26°C° 0 mm 8 mps 754 mmHg 58%
    16:00 +24°C° 0 mm 8 mps 754 mmHg 63%
    17:00 +23°C° 0 mm 8 mps 754 mmHg 68%
    18:00 +21°C° 0 mm 7 mps 755 mmHg 73%
    19:00 +20°C° 0 mm 7 mps 755 mmHg 79%
    20:00 +18°C° 0 mm 7 mps 755 mmHg 84%
    21:00 +18°C° 0 mm 7 mps 755 mmHg 84%
    22:00 +19°C° 0 mm 6 mps 755 mmHg 84%
    23:00 +19°C° 0 mm 6 mps 755 mmHg 84%

    19 July, Friday

    Time Temperature Precipitation Wind Pressure Humidity
    00:00 +17°C° 0 mm 6 mps 755 mmHg 84%
    01:00 +17°C° 0 mm 6 mps 755 mmHg 85%
    02:00 +17°C° 0 mm 6 mps 754 mmHg 85%
    03:00 +17°C° 0 mm 6 mps 754 mmHg 87%
    04:00 +17°C° 0 mm 6 mps 754 mmHg 88%
    05:00 +17°C° 0 mm 6 mps 754 mmHg 89%
    06:00 +20°C° 0 mm 6 mps 754 mmHg 79%
    07:00 +23°C° 0 mm 6 mps 754 mmHg 69%
    08:00 +26°C° 0 mm 6 mps 755 mmHg 59%
    09:00 +27°C° 0 mm 6 mps 754 mmHg 55%
    10:00 +28°C° 0 mm 6 mps 754 mmHg 52%
    11:00 +29°C° 0 mm 7 mps 754 mmHg 49%
    12:00 +29°C° 0 mm 7 mps 754 mmHg 50%
    13:00 +29°C° 0 mm 7 mps 753 mmHg 50%
    14:00 +28°C° 0 mm 7 mps 753 mmHg 51%
    15:00 +27°C° 0 mm 7 mps 753 mmHg 56%
    16:00 +26°C° 0 mm 7 mps 753 mmHg 62%
    17:00 +24°C° 0 mm 7 mps 753 mmHg 67%
    18:00 +22°C° 0 mm 7 mps 753 mmHg 73%
    19:00 +21°C° 0 mm 7 mps 754 mmHg 80%
    20:00 +18°C° 0 mm 7 mps 754 mmHg 87%
    21:00 +18°C° 0 mm 7 mps 754 mmHg 88%
    22:00 +18°C° 0 mm 7 mps 754 mmHg 88%
    23:00 +19°C° 0 mm 6 mps 754 mmHg 89%

    20 July, Saturday

    Time Temperature Precipitation Wind Pressure Humidity
    00:00 +19°C° 0 mm 6 mps 754 mmHg 90%
    01:00 +19°C° 0 mm 6 mps 754 mmHg 92%
    02:00 +19°C° 0 mm 6 mps 753 mmHg 93%
    03:00 +19°C° 0 mm 6 mps 753 mmHg 92%
    04:00 +19°C° 0 mm 6 mps 753 mmHg 91%
    05:00 +19°C° 0 mm 6 mps 753 mmHg 91%
    06:00 +21°C° 0 mm 6 mps 754 mmHg 81%
    07:00 +23°C° 0 mm 6 mps 754 mmHg 72%
    08:00 +26°C° 0 mm 6 mps 754 mmHg 63%
    09:00 +27°C° 0 mm 6 mps 754 mmHg 59%
    10:00 +28°C° 0 mm 6 mps 754 mmHg 54%
    11:00 +30°C° 0 mm 6 mps 754 mmHg 49%
    12:00 +29°C° 0 mm 7 mps 754 mmHg 50%
    13:00 +29°C° 0 mm 7 mps 754 mmHg 50%
    14:00 +29°C° 0 mm 7 mps 754 mmHg 51%
    15:00 +28°C° 0 mm 7 mps 754 mmHg 56%
    16:00 +26°C° 0 mm 7 mps 754 mmHg 60%
    17:00 +24°C° 0 mm 7 mps 754 mmHg 65%
    18:00 +23°C° 0 mm 7 mps 755 mmHg 69%
    19:00 +21°C° 0 mm 7 mps 755 mmHg 73%
    20:00 +20°C° 0 mm 7 mps 755 mmHg 76%
    21:00 +18°C° 0 mm 7 mps 755 mmHg 77%
    22:00 +18°C° 0 mm 7 mps 755 mmHg 78%
    23:00 +19°C° 0 mm 6 mps 756 mmHg 80%

    21 July, Sunday

    Time Temperature Precipitation Wind Pressure Humidity
    00:00 +19°C° 0 mm 6 mps 755 mmHg 82%
    01:00 +19°C° 0 mm 6 mps 755 mmHg 85%
    02:00 +17°C° 0 mm 6 mps 755 mmHg 88%
    03:00 +19°C° 0 mm 6 mps 755 mmHg 88%
    04:00 +19°C° 0 mm 6 mps 755 mmHg 88%
    05:00 +19°C° 0 mm 6 mps 755 mmHg 88%
    06:00 +21°C° 0 mm 6 mps 756 mmHg 79%
    07:00 +22°C° 0 mm 6 mps 756 mmHg 70%
    08:00 +25°C° 0 mm 5 mps 756 mmHg 61%
    09:00 +27°C° 0 mm 6 mps 756 mmHg 56%
    10:00 +28°C° 0 mm 6 mps 757 mmHg 50%
    11:00 +29°C° 0 mm 6 mps 757 mmHg 45%
    12:00 +29°C° 0 mm 6 mps 757 mmHg 45%
    13:00 +28°C° 0 mm 7 mps 756 mmHg 46%
    14:00 +28°C° 0 mm 7 mps 756 mmHg 46%
    15:00 +27°C° 0 mm 7 mps 756 mmHg 50%
    16:00 +26°C° 0 mm 7 mps 756 mmHg 54%
    17:00 +24°C° 0 mm 8 mps 757 mmHg 58%
    18:00 +22°C° 0 mm 7 mps 757 mmHg 65%
    19:00 +21°C° 0 mm 6 mps 757 mmHg 71%
    20:00 +19°C° 0 mm 6 mps 758 mmHg 77%
    21:00 +19°C° 0 mm 6 mps 758 mmHg 79%
    22:00 +19°C° 0 mm 6 mps 758 mmHg 80%
    23:00 +19°C° 0 mm 6 mps 758 mmHg 82%
    Show more